Location: Godiavel Galaoual
(15.2485°N, 12.6604°W)
Time: 10:03:32
(UTC+00:00)

SR - Visible Passes

Search period start: 15 June 2021 00:00
Search period end: 25 June 2021 00:00
Orbit: 574 x 880 km, 66.7° (Epoch: 14 June)

Date Brightness Start Highest point End Pass type
(mag) Time Alt. Az. Time Alt. Az. Time Alt. Az.
15 Jun ? 04:34:17 10° NNW 04:39:04 78° WSW 04:41:13 31° SSE visible
16 Jun ? 03:44:51 10° N 03:48:41 35° NE 03:48:41 35° NE visible
17 Jun ? 02:56:45 10° NNE 02:57:49 13° NE 02:57:49 13° NE visible
